Regional Weather Roundup
Issued by NWS

Home | Current Version | Previous Version | Graphics & Text | Print | Product List | Glossary Off
Versions: 1 2 3 4 5 6 7 8 9 10 11 12 13 14 15 16 17 18 19 20 21 22 23 24 25 26 27 28 29 30 31 32 33 34 35 36 37 38 39 40 41 42 43 44 45 46 47 48 49 50

000
ASUS43 KMKX 021721
RWRWI

WISCONSIN REGIONAL WEATHER ROUNDUP
NATIONAL WEATHER SERVICE MILWAUKEE/SULLIVAN WI
1200 PM CDT TUE JUN 02 2015

NOTE: "FAIR" INDICATES FEW OR NO CLOUDS BELOW 12,000 FEET WITH NO
SIGNIFICANT WEATHER AND/OR OBSTRUCTIONS TO VISIBILITY.

WIZ001-002-006>008-014>016-023>028-021800-
NORTHWEST WISCONSIN

CITY           SKY/WX    TMP DP  RH WIND       PRES   REMARKS
SUPERIOR ARPT  SUNNY     55  41  60 E8        30.04S
ASHLAND        PTSUNNY   72  46  39 S13       30.04F
HAYWARD        SUNNY     70  47  43 S16       30.06F
SIREN          SUNNY     71  50  47 S15G23    30.04S
CUMBERLAND     SUNNY     66  50  55 S13       30.06F
RICE LAKE      SUNNY     69  48  46 SE15      30.08F
CHETEK         SUNNY     68  51  54 S9G16     30.08F
LADYSMITH      SUNNY     67  46  47 S10       30.12S
EAU CLAIRE     SUNNY     70  50  49 S12       30.08F
MENOMONIE      SUNNY     69  52  54 S12       30.08F
NEW RICHMOND   SUNNY     69  53  57 S14G21    30.06S
OSCEOLA        MOSUNNY   71  53  52 S16       30.07S
$$

WIZ003>005-009-010-017-018-021800-
NORTH CENTRAL WISCONSIN

CITY           SKY/WX    TMP DP  RH WIND       PRES   REMARKS
MANITOWISH WTR PTSUNNY   65  43  45 SW10      30.11F
ARBOR VITAE    PTSUNNY   64  38  37 SW10      30.12F
WOODRUFF       PTSUNNY   64  38  37 SW10      30.12F
RHINELANDER    PTSUNNY   64  34  32 S9        30.14F
EAGLE RIVER    PTSUNNY   64  32  30 SW10      30.13S
LAND O LAKES   PTSUNNY   66  34  31 S8G17     30.13S
PHILLIPS       SUNNY     65  42  43 S10       30.10F
TOMAHAWK       MOSUNNY   65  43  44 S6        30.14F
MEDFORD        SUNNY     63  43  48 SE10      30.13F
MERRILL        MOSUNNY   64  37  37 S8        30.15F
$$

WIZ029-030-035-036-043>047-021800-
CENTRAL WISCONSIN

CITY           SKY/WX    TMP DP  RH WIND       PRES   REMARKS
WAUSAU         MOSUNNY   64  39  39 S8        30.13F
MOSINEE        SUNNY     64  41  42 S8        30.15F
MARSHFIELD     SUNNY     66  41  40 SE9       30.14F
STEVENS POINT  SUNNY     65  39  38 S8        30.15F
WAUPACA        SUNNY     68  40  35 SE10      30.16F
WAUTOMA        SUNNY     69  39  33 S10       30.15F
WISC RAPIDS    SUNNY     68  35  29 VRB7      30.15F
CAMP DOUGLAS   MOSUNNY   66  43  42 S7        30.13F
$$

WIZ011>013-019>022-031-037>040-048>050-021800-
NORTHEAST WISCONSIN

CITY           SKY/WX    TMP DP  RH WIND       PRES   REMARKS
ANTIGO         MOSUNNY   62  43  49 SW5       30.16F
SHAWANO        MOSUNNY   68  42  38 S7        30.16F
OCONTO         PTSUNNY   65  39  37 S6        30.17S
STURGEON BAY   MOSUNNY   63  45  51 E9        30.20F
GREEN BAY      MOSUNNY   68  44  42 VRB6      30.16F
MANITOWOC      MOSUNNY   58  45  62 SE8       30.19F
APPLETON       MOSUNNY   64  36  34 S8        30.17F
CLINTONVILLE   SUNNY     66  39  37 S13G18    30.15F
OSHKOSH        SUNNY     68  42  38 SE9       30.16F
$$

WIZ032>034-041-042-053>061-021800-
SOUTHWEST WISCONSIN

CITY           SKY/WX    TMP DP  RH WIND       PRES   REMARKS
LA CROSSE      SUNNY     69  51  52 S6        30.10F
SPARTA         SUNNY     70  44  40 S6        30.12F
VIROQUA        SUNNY     67  49  53 S10       30.13F
BOSCOBEL       FAIR      71  50  47 SE8       30.13F
PRAIRIE DU CHI MOSUNNY   66  50  57 SW5       30.12F
PLATTEVILLE    PTSUNNY   65  50  58 E6        30.13F
$$

WIZ056-057-062-063-064-067-068-021800-
SOUTH CENTRAL WISCONSIN

CITY           SKY/WX    TMP DP  RH WIND       PRES   REMARKS
REEDSBURG      SUNNY     65  43  46 SE7       30.14F
BARABOO/DELLS  SUNNY     65  41  41 S6        30.14F
LONE ROCK      SUNNY     68  42  38 SE8       30.14F
MINERAL POINT  FAIR      66  45  45 SE5       30.14F
MADISON        MOSUNNY   65  44  46 S6        30.15F
MIDDLETON      SUNNY     67  43  41 CALM      30.16S
WATERTOWN      SUNNY     67  39  35 SE7       30.15F
MONROE         SUNNY     64  45  48 SE6       30.15S
JANESVILLE     SUNNY     68  45  42 S8        30.15F
$$

WIZ051-052-058>065-066-070>072-021800-
SOUTHEAST WISCONSIN

CITY           SKY/WX    TMP DP  RH WIND       PRES   REMARKS
MILWAUKEE      MOSUNNY   59  45  59 E9        30.18F
WAUKESHA       SUNNY     64  36  34 E10       30.17F
MILWAUKEE/TIMM SUNNY     64  36  34 SE8       30.18F
RACINE         SUNNY     58  46  64 E7        30.20F
BURLINGTON     SUNNY     66  43  43 S6        30.16F
KENOSHA        SUNNY     63  48  58 E12       30.18F
FOND DU LAC    LGT RAIN  68  43  40 S7        30.16F
SHEBOYGAN      SUNNY     65  40  39 SE8       30.18F
WEST BEND      SUNNY     64  34  32 E10       30.17S
JUNEAU         SUNNY     66  42  41 SE12      30.17F
$$

LSZ147-162-021800-
LAKE SUPERIOR

STATION/POSITION TIME  TEMP    WIND        PRES    WAVE
                       AIR SEA DIR/SP/G            HT/PER
                 (UTC) (F)     (DEG/KT/KT) (MB)    (FT/S)
W MID LAKE BUOY  1650   43 37  130/  6/  8   N/A     1
DEVILS ISLAND    1700   64     180/  7/ 12   N/A
PORT WING        1600   44      20/  9/ 12   N/A
SAXON HARBOR     1600   67     200/  8/ 17   N/A
$$

LMZ867-665-643>646-021800-
LAKE MICHIGAN

STATION/POSITION TIME  TEMP    WIND        PRES    WAVE
                       AIR SEA DIR/SP/G            HT/PER
                 (UTC) (F)     (DEG/KT/KT) (MB)    (FT/S)
CHAMBERS ISLAND  1500   58     340/  3/  4   N/A
N MID LAKE BUOY  1650   42 38  170/  6/  6   N/A     0
NORTHPORT PIER   1600   49     140/ 12/ 13   N/A
SISTER BAY       1618   58     350/  7/  8   N/A
ALGOMA LAKESHORE 1639          190/  5/  6   N/A
KEWAUNEE LAKESHO 1600   46     170/  6/  8   N/A
SHEBOYGAN LAKESH 1700   47     140/  8/  9   N/A
PORT WASHINGTON  1500   51      70/  4/  4   N/A
ATWATER BUOY     1600   46      60/  2/  4   N/A
MILWAUKEE LAKESH 1600   47      60/  4/  4   N/A
S MID LAKE BUOY  1650   42 39  120/  6/  8   N/A     1
KENOSHA   LAKESH 1700   51      90/  4/  5   N/A
$$

TC  - TEMPERATURE IN CELSIUS
VSB - VISIBILITY IN STATUTE MILES
WCI - WIND CHILL INDEX
HX  - HEAT INDEX



USA.gov is the U.S. government's official web portal to all federal, state and local government web resources and services.